RH
25 23 22 22 22 22 23 23 24 25 26 26 27 28 29 30 34 35 35 35 34 35 37 37 37 38 39 39 40 40 37 33 32 32 32 33 32 30 29 27 26 25 24 22 21 21 20 19 17 16 15 15 14 14 14 14 14 14 13 12 12 12 12 11 10 9 9 9 8 8 9 9 11 12 14 15 15 15 15 15 14 14 14 13 13 12
21 21 22 22 23 24 24 24 25 25 26 27 27 29 30 31 34 36 37 37 36 37 37 35 35 37 37 38 42 41 36 33 33 34 34 34 33 31 30 29 28 27 24 22 21 20 19 17 16 15 14 13 13 13 13 13 12 12 12 11 11 10 10 9 9 9 8 8 8 8 7 7 7 8 9 10 12 13 14 14 15 15 15 15 14 13
22 23 23 24 24 24 24 24 24 25 26 27 27 29 31 31 32 35 36 36 34 32 33 32 32 35 34 37 41 38 35 36 36 35 35 34 33 32 33 33 33 30 26 23 22 21 19 18 17 16 14 13 11 11 11 11 10 10 9 9 9 8 8 8 7 7 7 7 7 7 7 7 7 7 7 7 8 9 10 11 12 13 14 14 14 14
23 23 23 23 23 23 23 23 24 24 25 26 27 27 29 29 29 30 32 35 34 32 31 30 33 36 36 40 41 36 38 44 43 42 43 43 44 46 46 44 39 33 27 24 24 23 22 21 19 18 15 13 12 11 10 10 9 8 8 7 7 6 6 6 6 5 6 5 5 5 5 6 6 6 6 6 6 6 7 8 9 10 11 12 12 13
23 23 23 23 24 24 25 25 25 25 25 26 27 27 27 29 29 29 31 35 39 39 35 33 39 42 46 54 49 42 51 59 58 57 58 58 59 59 55 49 41 32 26 24 24 24 23 23 21 19 16 15 13 12 11 11 10 9 8 8 6 6 5 5 5 4 4 5 4 4 4 5 5 5 5 6 6 6 6 6 7 7 8 9 10 11
24 24 25 25 25 25 26 26 26 26 26 26 27 28 29 30 34 37 38 41 46 50 46 47 55 56 61 68 60 54 62 68 65 62 60 58 56 54 49 43 37 31 27 25 24 24 23 22 19 17 15 14 13 12 11 10 9 8 7 7 6 5 5 4 4 4 3 4 4 4 4 4 5 5 5 5 6 6 6 6 6 6 6 7 7 8
24 25 25 25 26 26 26 27 27 27 28 29 31 35 37 40 46 51 55 59 63 67 63 61 65 62 64 66 55 50 52 50 48 45 43 44 44 42 38 34 31 28 25 22 21 21 20 18 15 13 11 11 11 10 9 8 7 7 6 6 5 4 4 4 4 4 3 3 3 3 3 4 4 4 5 5 5 5 5 5 5 5 6 6 6 6
25 26 26 27 27 27 29 31 33 35 37 41 45 49 54 57 62 66 71 73 71 70 65 61 58 50 49 49 37 34 36 32 30 29 30 33 31 28 26 24 22 20 17 16 15 15 14 12 10 9 9 8 8 7 7 7 6 6 6 5 5 4 4 4 3 3 3 3 3 3 3 3 3 3 4 4 4 4 4 5 5 5 5 5 5 5
28 29 29 32 34 36 41 44 48 51 52 54 55 59 61 62 66 67 69 68 67 70 67 59 51 40 38 36 26 26 29 24 21 22 23 22 19 17 16 16 15 14 13 12 12 12 11 10 8 8 8 7 8 7 6 6 5 5 5 5 4 4 3 3 3 3 3 3 2 3 3 3 3 3 3 3 4 4 4 4 5 5 5 5 5 5
35 39 42 45 47 50 52 54 55 53 52 52 51 54 56 58 61 62 63 63 64 74 75 66 57 49 45 33 22 29 31 24 21 21 19 16 14 13 13 13 13 12 12 12 11 11 9 8 8 7 7 6 6 6 5 4 5 4 4 4 4 4 3 3 3 3 3 3 3 2 2 2 3 3 3 3 3 3 4 4 4 4 5 5 5 5
45 48 50 49 49 50 49 48 46 44 46 47 45 47 51 55 58 59 63 63 66 78 84 79 73 70 60 35 21 30 31 25 24 22 19 17 14 14 13 13 13 12 12 11 9 9 7 6 6 5 5 5 5 4 4 4 4 4 3 4 3 3 3 3 2 3 2 2 2 2 2 3 2 3 3 3 3 3 3 3 4 4 4 4 5 4
47 47 49 47 46 48 46 45 45 44 48 47 44 44 46 52 58 62 66 66 71 85 89 78 68 75 70 38 24 30 27 22 23 20 17 15 13 13 12 11 10 9 8 8 6 6 5 5 4 5 4 4 4 4 3 3 3 3 3 3 3 3 2 2 2 2 2 2 2 2 2 2 2 3 3 2 3 3 3 3 3 3 4 4 4 4
46 46 49 50 50 51 51 52 51 49 52 50 48 48 47 49 52 57 57 54 61 82 99 91 76 83 74 37 22 26 22 19 18 14 13 11 11 10 8 8 7 6 6 5 5 4 4 4 3 4 4 3 4 3 3 3 3 3 3 2 2 2 2 2 2 2 2 2 2 2 2 2 2 2 2 3 2 2 3 3 3 3 3 3 4 3
45 46 50 53 56 59 59 61 58 54 57 57 53 50 50 48 46 48 45 39 42 62 94 100 85 89 69 26 19 22 15 15 12 11 11 8 9 7 6 7 6 6 6 4 5 4 4 4 3 3 3 3 3 3 3 3 3 2 2 2 2 2 2 2 2 2 2 2 2 2 2 2 2 2 2 2 2 2 2 2 2 2 3 3 3 3
48 49 53 55 59 64 65 68 66 61 61 61 55 51 56 58 54 52 46 38 34 44 74 80 72 87 66 20 18 21 12 13 10 9 10 7 8 7 5 7 5 5 6 4 5 4 4 4 3 3 3 3 3 3 3 2 2 2 2 2 2 2 2 2 2 2 2 2 2 2 2 2 2 2 2 2 2 2 2 2 2 2 2 2 3 3
57 56 59 61 63 66 70 74 75 72 68 67 64 59 63 65 60 59 55 49 39 40 66 75 74 93 70 23 19 18 9 12 9 8 9 6 7 7 5 6 5 5 5 4 4 3 4 4 3 3 2 3 3 2 3 2 2 2 2 2 2 2 2 2 2 2 2 2 2 2 2 2 2 2 2 2 2 2 2 2 2 2 2 2 2 2
67 65 64 66 69 71 74 77 78 80 79 79 76 65 63 69 70 67 59 53 44 39 60 80 91 98 60 16 16 14 7 10 8 8 8 5 7 6 6 6 4 5 4 3 4 3 4 3 2 3 2 3 3 2 3 2 2 2 2 2 2 2 2 2 2 2 2 2 2 2 2 2 2 2 2 2 2 2 2 2 2 2 2 2 2 2
68 71 69 68 72 75 78 80 79 82 85 86 82 72 67 73 81 78 60 48 42 34 42 65 98 109 58 14 14 11 7 10 6 7 7 4 7 5 5 6 3 5 4 3 4 3 3 3 2 3 2 2 3 2 2 2 2 2 2 2 2 2 2 2 2 2 2 2 2 2 2 2 2 2 2 2 2 2 2 2 2 2 2 2 2 2
68 73 74 71 72 75 81 85 81 78 81 85 85 80 77 77 86 90 72 53 43 35 28 34 80 112 63 15 16 11 7 10 5 7 7 4 7 5 4 6 3 5 4 3 4 3 3 3 2 3 2 2 3 2 2 2 2 2 2 2 2 2 2 2 2 2 2 2 2 2 2 2 2 2 2 2 2 2 2 2 3 2 2 2 2 3
68 71 76 78 76 75 79 85 84 78 78 85 86 81 78 76 83 90 78 61 51 45 30 14 53 101 62 13 15 12 5 10 5 5 7 4 6 6 4 5 4 5 4 4 4 3 3 3 2 3 2 2 2 2 2 2 2 2 2 2 2 2 2 2 2 2 2 2 2 2 2 1 2 2 2 2 2 2 2 2 3 2 2 3 2 3
71 71 76 83 84 82 83 87 89 84 81 89 91 84 81 77 78 83 73 63 62 60 41 13 35 81 57 12 12 11 4 9 6 5 6 5 6 6 5 5 5 5 5 5 5 3 3 3 3 3 3 3 2 2 2 2 2 2 2 2 2 2 2 2 2 2 2 2 2 2 2 2 2 2 2 2 2 2 3 2 2 3 2 3 3 3
75 74 75 82 87 87 88 90 92 90 86 92 96 89 82 77 75 76 65 56 64 73 58 26 27 56 45 13 10 10 6 8 7 5 6 5 6 6 6 6 5 5 5 5 5 4 4 3 3 3 3 3 3 2 2 2 2 2 2 2 2 2 2 2 2 2 2 2 2 2 2 2 2 2 2 2 2 2 2 2 2 3 2 3 3 3
76 76 74 78 85 85 85 86 88 89 85 85 93 90 82 76 74 75 62 47 54 68 58 29 22 37 33 15 11 10 8 8 7 7 6 5 7 6 7 7 5 6 6 5 6 5 4 3 2 3 3 3 3 2 2 2 2 2 2 2 2 2 2 2 2 2 2 2 2 2 2 2 2 2 2 2 2 2 2 2 2 2 2 2 2 2
77 77 73 73 79 80 81 83 82 82 78 75 81 85 82 77 78 80 65 45 46 60 54 27 15 24 24 15 12 9 8 9 7 7 7 6 7 7 7 7 5 5 6 6 6 5 4 3 2 2 3 3 3 2 2 2 2 2 2 2 2 2 2 2 2 2 2 2 2 2 2 2 2 2 2 2 2 2 2 2 2 2 2 2 2 2
79 80 77 71 72 75 77 79 78 77 77 74 73 79 83 81 83 83 68 47 43 53 54 32 12 14 17 12 11 9 8 9 7 7 7 6 6 7 6 6 5 5 6 6 6 5 3 3 3 3 3 3 3 2 2 2 2 2 2 2 2 2 2 2 2 2 2 2 2 2 2 2 2 2 2 2 2 2 2 2 2 2 2 2 2 2
83 83 84 77 72 74 74 75 78 78 77 78 76 78 86 86 86 88 73 52 43 44 51 44 20 11 14 10 8 8 7 8 7 6 7 6 6 6 6 6 5 5 6 5 5 5 4 3 3 3 3 2 3 2 2 2 2 2 2 2 2 2 2 2 2 2 2 2 2 2 2 2 2 2 2 2 2 2 2 2 2 2 3 2 2 2
86 85 87 85 77 77 78 76 80 82 80 84 86 83 88 88 89 95 79 55 45 39 39 42 27 12 11 9 7 8 6 7 7 6 7 7 5 5 5 5 5 5 6 6 6 5 4 4 3 3 3 2 2 2 2 2 2 2 2 2 2 2 2 2 2 2 2 2 2 2 2 2 2 2 2 2 2 2 2 2 2 2 2 2 2 3
87 85 87 88 81 78 82 78 81 89 87 89 93 87 87 86 89 100 85 55 48 42 29 28 23 12 10 8 6 7 6 6 7 6 7 6 5 5 5 5 5 5 5 6 6 5 3 3 3 2 3 2 2 2 2 2 2 2 2 2 2 2 2 2 2 2 2 2 2 2 2 2 2 2 2 2 2 3 2 2 2 2 2 2 3 3
86 85 85 88 84 79 83 81 81 90 89 86 87 83 84 85 86 96 84 52 45 44 28 20 17 11 9 8 7 7 6 7 7 6 7 6 5 5 5 5 5 4 5 6 6 6 4 3 3 2 2 2 2 2 2 2 2 2 2 2 2 2 2 2 2 2 2 2 2 2 2 2 2 2 3 3 3 3 3 3 3 3 3 3 3 3
82 83 82 87 88 82 83 84 81 84 83 79 79 77 80 83 81 86 78 51 40 40 30 21 15 10 9 8 7 8 7 7 8 7 7 7 6 7 6 5 5 5 5 5 5 5 4 3 2 2 2 2 2 2 2 2 2 2 2 2 2 2 2 2 2 2 2 2 2 3 3 2 3 3 3 3 3 3 3 3 3 3 3 3 3 3
79 81 80 83 90 87 84 84 81 81 81 79 79 76 74 74 74 79 75 53 36 31 26 22 15 10 9 8 7 9 7 7 8 6 7 8 7 7 6 4 5 4 4 5 4 3 3 3 2 2 2 2 2 2 2 2 2 2 2 2 2 2 2 2 2 2 2 2 2 3 3 3 3 3 3 3 3 3 3 3 4 4 4 4 4 4
79 80 79 81 88 90 87 85 83 82 81 79 76 70 64 63 67 75 72 53 40 33 24 19 14 9 8 7 7 8 7 8 8 7 7 8 7 7 6 4 4 4 4 4 3 3 3 2 2 2 2 2 2 2 2 2 2 2 2 2 2 2 2 2 2 2 2 2 3 3 3 3 3 3 3 4 3 3 4 4 4 4 4 4 4 4
82 82 82 82 88 90 89 87 85 82 81 77 70 63 59 55 57 67 64 47 38 36 27 20 16 10 8 7 6 7 7 8 9 8 7 7 6 6 5 4 3 3 4 4 3 3 3 2 2 2 2 2 2 2 2 2 2 2 2 2 2 2 2 2 2 2 2 2 3 3 3 3 3 3 3 3 3 4 4 4 4 4 4 4 4 4
86 86 85 84 88 91 90 86 83 81 80 77 70 64 59 51 46 56 60 46 34 34 30 23 18 11 8 8 6 6 7 8 9 9 8 7 6 6 5 4 4 4 4 4 4 4 3 3 2 2 2 2 2 2 2 2 2 2 2 2 2 2 2 2 2 2 2 2 2 3 3 3 3 3 3 3 3 3 4 4 4 4 4 4 4 4
89 90 89 86 87 89 87 84 81 80 80 78 73 66 58 47 38 43 53 48 36 32 29 22 17 12 8 7 7 6 7 8 9 8 7 7 7 6 6 5 4 4 4 4 4 4 4 3 3 2 2 2 2 2 2 2 2 2 2 2 2 2 2 2 2 2 2 2 2 2 2 2 3 3 3 3 3 3 3 3 3 4 4 4 4 4
91 92 92 89 88 88 87 86 85 82 79 77 73 65 56 47 37 33 38 39 33 28 24 19 14 10 7 6 7 6 6 8 9 8 8 8 7 7 6 5 4 4 4 4 3 3 3 3 2 2 2 2 2 2 2 2 2 2 2 2 2 2 2 2 2 2 2 2 2 2 2 2 2 3 3 3 3 3 3 3 3 4 4 4 4 4
94 95 95 92 91 91 90 87 84 80 78 77 73 66 57 48 39 32 28 29 28 25 20 16 12 9 7 6 6 6 6 7 8 8 7 7 7 6 6 5 5 4 4 4 4 3 3 3 2 2 2 2 2 2 2 2 2 2 2 2 2 2 2 2 2 2 2 2 2 2 2 2 2 3 3 3 3 3 3 3 3 3 3 4 3 3
96 97 99 97 95 96 95 91 85 79 77 76 72 67 61 51 41 34 29 25 25 23 18 15 12 9 7 6 5 5 5 6 7 7 6 6 6 6 5 5 4 4 4 4 4 4 3 3 2 2 2 2 2 2 2 2 2 2 2 2 2 2 2 2 2 2 2 2 2 2 2 2 2 2 3 3 3 3 3 3 3 3 3 4 3 3
97 99 103 103 99 98 99 98 93 85 80 78 76 70 64 55 44 36 30 25 23 21 18 14 11 8 6 5 5 5 5 5 5 5 5 5 5 5 5 4 4 4 4 4 3 4 3 3 2 2 2 2 2 2 2 2 2 2 2 2 2 2 2 2 2 2 2 2 2 2 2 2 3 2 3 3 3 3 3 3 3 3 3 3 4 4
96 99 104 107 104 100 100 100 98 92 85 82 79 70 61 53 44 36 31 25 21 19 17 14 10 8 6 5 5 5 5 5 5 5 5 5 6 5 5 4 4 4 4 4 3 3 3 3 2 2 2 2 2 2 2 2 2 2 2 2 2 2 2 2 2 2 2 2 2 2 2 2 3 3 3 3 3 3 3 3 3 3 3 4 4 4
94 98 101 105 105 101 100 100 97 93 86 79 74 67 57 50 44 37 31 24 19 17 16 13 10 7 6 5 5 5 5 6 5 5 6 5 6 6 5 4 4 4 3 3 3 3 3 3 2 2 2 2 2 2 2 2 2 2 2 2 2 2 2 2 2 2 2 2 2 2 2 3 2 3 3 3 3 4 3 4 3 3 4 4 4 4
92 98 100 102 103 101 101 100 95 90 86 77 69 65 59 51 44 36 29 23 19 17 15 12 9 7 5 5 5 5 5 6 6 5 6 5 5 5 5 4 4 4 4 3 3 3 3 2 2 2 2 2 2 2 2 2 2 2 2 2 2 2 2 2 2 2 2 2 2 2 3 3 3 3 3 3 4 3 3 3 3 3 4 4 4 4
90 97 101 104 105 103 103 104 100 96 93 86 76 70 64 55 45 36 29 24 20 17 14 12 9 6 5 5 5 5 5 5 6 6 5 5 5 5 4 4 4 4 3 3 3 3 3 3 2 2 2 2 2 2 2 2 2 2 2 2 2 2 2 2 2 2 2 2 2 2 3 3 3 3 3 4 4 3 3 4 3 4 4 4 4 4
89 95 101 104 107 107 107 108 107 102 99 94 85 74 65 56 46 37 31 26 21 17 14 11 8 6 5 5 5 5 5 5 6 5 5 5 5 4 4 4 3 4 3 3 3 3 3 3 2 2 2 2 2 2 2 2 2 2 2 2 2 2 2 2 2 2 2 2 3 3 3 3 3 4 4 4 3 3 3 3 3 4 4 4 4 4
87 93 99 103 106 110 109 108 107 103 99 96 89 76 65 56 47 38 31 25 20 17 14 11 8 6 5 5 5 5 5 5 5 5 5 5 4 4 4 4 3 3 3 3 3 3 3 3 2 2 2 2 2 2 2 2 2 2 2 2 2 2 2 2 2 3 2 2 3 3 3 3 4 4 4 3 3 3 3 3 4 4 4 4 4 4
84 90 97 100 103 106 106 106 107 104 97 93 89 78 66 57 48 38 31 24 19 16 14 11 9 6 5 5 5 5 5 5 5 5 5 4 4 4 4 4 3 3 3 3 3 3 3 3 2 2 2 2 2 2 2 2 2 2 2 2 2 2 2 2 2 2 2 3 3 3 3 4 4 3 3 3 3 3 3 4 4 4 4 4 4 4
80 85 93 97 100 103 104 105 109 109 101 93 87 77 64 55 47 38 31 24 19 15 13 11 8 6 5 5 5 5 5 5 5 5 5 4 4 4 3 3 3 3 3 3 3 3 3 3 2 2 2 2 2 2 2 2 2 2 2 2 2 2 2 2 2 2 2 3 3 3 4 4 4 3 3 3 3 3 4 4 4 4 4 4 4 4
76 81 87 91 96 100 100 98 101 106 106 97 87 76 64 54 45 36 30 24 19 15 13 10 8 6 5 5 5 5 5 5 5 5 5 4 4 4 3 4 3 3 3 3 3 3 4 3 3 2 2 2 2 2 2 2 2 2 2 2 2 2 2 2 2 2 3 3 3 4 4 3 3 3 3 3 3 4 4 4 4 4 4 4 4 4
73 77 82 86 91 94 95 92 90 93 98 95 85 75 65 54 44 35 28 23 18 14 11 9 7 6 5 5 5 5 5 5 5 5 5 4 4 4 3 4 4 3 3 3 3 3 4 3 3 2 2 2 2 2 2 2 2 2 2 2 2 2 2 3 2 2 3 3 3 4 4 3 3 3 3 4 4 4 4 4 4 4 4 4 4 4
71 74 78 82 86 89 92 92 87 86 90 90 82 73 65 56 45 34 27 22 18 14 11 8 7 6 5 5 5 5 5 5 5 5 5 4 4 4 3 3 4 3 3 3 3 3 3 3 3 2 2 2 2 2 2 2 2 2 2 2 2 2 2 3 3 3 3 3 3 4 4 3 3 3 3 4 4 4 4 4 4 4 4 4 4 4
70 73 75 78 82 87 91 93 89 87 89 89 82 73 65 56 46 34 27 22 17 13 11 8 6 5 5 5 5 5 5 5 5 5 5 4 4 3 3 4 3 3 3 3 3 3 4 3 3 2 2 2 2 2 2 2 2 2 2 2 2 2 2 2 2 3 3 3 4 4 3 3 4 4 4 4 4 4 4 4 4 4 4 4 5 5
Wind_Speed
63 63 63 63 63 64 65 66 67 68 69 70 72 73 75 76 78 81 82 83 84 84 85 86 87 88 89 90 91 92 93 94 95 95 96 97 97 98 98 99 99 100 100 99 99 99 99 99 100 99 99 99 99 99 100 100 100 100 101 101 101 101 103 104 104 103 105 106 107 108 110 111 112 113 116 118 120 121 121 121 122 121 122 122 122 122
60 60 61 61 62 63 64 65 66 68 70 71 73 74 76 77 78 80 82 82 83 83 83 83 83 84 86 87 89 90 91 92 93 94 94 95 96 96 97 98 99 100 99 99 99 99 100 100 100 100 100 100 99 98 98 99 99 99 100 100 100 100 101 102 102 101 102 103 104 105 106 107 108 109 111 114 116 117 119 120 121 121 122 123 123 123
58 59 60 60 61 62 64 65 66 68 69 71 72 73 75 76 75 76 78 79 80 79 79 80 81 82 83 85 87 89 90 91 93 94 94 95 96 97 98 99 100 100 100 100 100 101 101 102 102 102 102 101 99 97 97 98 97 97 98 98 98 98 99 101 100 99 100 101 101 101 102 103 104 106 108 110 112 113 115 117 118 119 121 122 123 124
56 57 58 59 61 62 63 64 65 66 67 68 69 70 71 73 73 72 73 76 78 79 78 79 80 81 83 85 86 88 89 91 93 94 95 96 98 99 101 102 103 102 101 101 101 102 103 104 104 104 104 102 100 99 99 99 98 97 98 99 98 98 98 99 99 98 97 98 98 98 97 98 100 102 104 105 107 110 112 113 115 117 119 120 121 121
56 57 57 58 59 60 61 62 63 64 65 65 67 67 68 70 71 72 72 73 75 77 78 79 79 80 83 85 85 87 90 91 93 95 95 96 98 99 101 102 103 103 102 102 102 103 104 105 106 105 104 103 102 102 101 101 101 100 100 100 100 99 98 98 98 97 95 95 96 96 94 94 96 98 99 101 103 106 108 109 111 113 116 117 118 118
55 56 56 57 58 58 59 60 61 62 63 63 64 65 66 67 69 71 72 73 74 76 77 78 79 79 81 84 85 86 88 90 91 93 93 94 95 96 98 100 102 103 103 102 102 103 104 104 104 103 101 101 101 102 100 100 100 100 100 99 99 98 98 98 97 96 94 93 93 93 92 92 93 95 96 98 100 102 105 107 107 109 111 114 115 115
53 54 54 55 56 56 57 57 58 59 60 61 62 64 65 67 68 69 70 71 71 73 75 76 77 76 76 81 84 82 84 85 86 88 88 89 91 93 94 96 99 100 100 99 99 99 100 100 100 98 97 96 97 98 99 98 98 98 98 98 97 96 96 96 96 95 94 92 92 92 90 89 90 91 93 96 98 99 101 103 105 106 108 111 113 113
51 51 51 52 52 53 54 55 56 57 58 60 61 62 62 63 64 64 64 66 67 69 72 73 75 74 72 78 82 80 81 82 82 84 85 87 89 90 91 92 94 96 96 95 94 94 96 96 96 95 94 94 95 96 96 96 96 96 97 97 97 97 95 94 93 93 92 91 91 90 90 89 89 89 91 94 96 96 97 99 101 102 104 107 110 111
48 49 50 51 52 53 54 55 56 56 57 57 57 57 58 58 59 60 61 63 65 67 70 72 75 75 73 77 81 81 82 83 82 84 86 87 88 88 89 90 92 93 93 93 93 94 95 96 95 94 93 93 94 95 95 94 94 94 94 94 95 96 95 93 91 91 90 89 88 87 87 87 87 88 89 91 93 94 94 95 96 98 100 102 106 107
50 51 52 52 53 54 54 54 54 54 54 55 55 56 58 59 60 61 63 64 65 67 70 73 76 78 77 76 79 83 85 85 86 87 89 89 89 89 89 91 92 93 93 94 94 95 95 94 93 92 91 90 90 92 92 90 89 89 89 89 90 91 92 90 89 88 87 86 85 83 83 83 83 85 86 87 89 92 92 92 92 95 97 99 101 102
52 52 52 53 53 54 54 54 55 55 56 57 57 57 58 60 61 63 64 65 66 67 68 71 74 78 80 79 78 81 84 85 86 88 89 89 89 90 90 91 91 91 91 91 91 91 91 90 88 88 87 86 86 87 87 85 83 84 85 85 85 86 86 86 85 85 83 82 80 79 79 79 80 81 82 82 85 88 90 90 90 92 94 96 98 99
52 52 53 55 56 57 58 59 60 60 61 61 61 61 60 60 61 63 64 65 66 66 68 71 73 76 80 79 77 78 79 81 83 85 86 86 87 88 88 87 86 85 85 86 87 87 87 86 83 82 83 82 82 82 82 80 79 79 80 80 81 81 81 81 81 81 80 78 76 74 75 75 75 77 78 79 80 83 85 87 88 90 92 94 95 96
55 56 57 59 60 61 62 62 63 64 65 65 66 66 65 63 63 63 64 64 64 66 69 72 74 75 78 78 76 77 78 79 81 83 84 84 84 84 84 84 83 83 83 84 86 86 86 85 82 79 79 79 78 78 77 76 76 76 75 75 75 76 76 76 76 76 75 74 73 71 70 71 71 72 74 76 77 79 81 82 84 86 88 90 93 93
59 60 61 62 63 64 65 65 66 67 68 69 69 70 70 70 69 69 69 68 66 66 69 74 77 79 81 79 78 79 80 81 82 82 83 83 83 83 82 83 83 83 83 83 83 84 84 84 81 78 77 76 76 75 75 74 74 73 72 71 71 70 70 70 70 70 70 69 68 67 67 67 67 68 70 72 74 76 77 78 80 81 83 85 88 91
63 64 64 65 65 66 67 68 69 71 71 72 73 74 75 76 76 75 76 76 74 71 71 75 79 84 87 85 83 83 82 82 83 82 82 83 84 84 82 81 80 81 81 80 79 80 81 81 78 75 73 73 73 72 72 72 72 71 69 69 69 67 66 66 65 64 64 64 64 63 63 63 63 65 66 68 70 72 73 74 76 77 78 79 82 85
66 67 67 67 68 68 69 70 71 73 74 74 76 77 77 78 79 79 79 80 80 78 77 79 81 86 91 89 87 87 85 84 84 84 84 83 83 83 82 80 79 78 78 78 78 77 77 76 74 72 69 69 70 69 68 68 68 66 65 65 65 64 63 62 61 60 60 60 60 60 59 59 59 60 62 64 66 68 69 70 71 73 74 76 77 80
66 68 69 69 70 70 70 71 72 74 75 75 77 78 79 80 81 82 81 81 82 80 80 82 84 87 91 90 87 89 88 87 85 84 83 82 81 81 80 79 78 76 75 75 76 76 75 74 71 69 67 66 68 69 66 65 64 62 60 60 60 59 59 58 58 57 56 56 57 56 55 54 55 56 57 59 61 63 64 66 67 68 70 71 73 75
67 69 71 71 71 71 72 73 74 75 75 76 79 81 82 82 82 85 85 84 83 82 81 83 86 91 96 94 91 91 91 89 86 83 82 80 79 78 77 76 76 75 74 73 74 74 74 73 69 68 67 65 66 68 66 62 60 58 56 55 54 54 54 55 54 54 53 53 54 53 52 51 51 52 52 54 56 58 59 61 62 64 65 67 68 70
69 69 72 73 74 74 74 75 76 77 77 78 81 83 84 84 83 85 88 89 89 88 85 83 86 93 99 98 96 95 94 92 88 84 82 80 78 76 74 74 72 72 72 72 72 72 72 71 69 67 66 65 64 65 64 61 57 55 54 53 51 50 50 51 51 50 50 49 50 51 50 48 48 48 49 49 51 52 54 55 57 59 61 63 64 65
71 71 73 75 77 78 78 78 79 81 81 81 83 84 86 87 87 87 89 92 93 93 91 87 86 94 100 99 97 97 95 94 92 87 83 81 80 78 76 75 72 71 72 71 71 71 69 69 67 65 65 64 63 62 61 59 56 53 52 51 50 48 47 47 48 48 47 46 46 46 46 45 45 45 46 46 47 49 50 52 53 55 57 58 60 61
74 74 75 76 78 80 81 81 82 84 85 85 85 87 88 89 89 90 91 93 94 95 97 93 89 94 101 100 97 96 95 96 94 89 84 82 81 80 78 77 75 73 73 71 70 70 67 65 64 63 63 63 62 60 58 56 54 52 50 49 49 48 46 46 46 45 45 44 43 42 42 42 42 42 43 44 46 47 49 50 50 52 53 55 57 58
75 77 77 78 79 81 82 84 84 86 87 87 87 89 91 91 92 92 93 94 95 96 98 98 93 94 100 103 101 100 98 97 96 92 87 82 80 79 77 77 76 74 73 72 70 69 67 64 61 59 60 61 60 58 55 54 51 50 49 47 47 47 46 45 44 44 43 42 41 40 39 39 39 40 41 42 44 46 48 49 49 50 52 53 55 55
76 78 79 80 82 83 84 85 87 88 89 89 89 91 93 94 95 97 98 97 96 97 99 99 95 94 99 102 103 102 99 97 96 94 90 85 82 80 78 76 74 71 71 72 71 70 67 63 59 55 55 57 58 56 53 52 50 48 47 46 46 46 45 44 43 42 41 40 40 39 38 37 38 38 39 41 42 44 46 48 49 50 51 52 53 54
78 80 81 82 83 84 86 87 88 90 91 92 92 93 96 98 98 99 101 100 98 99 101 99 94 94 98 101 102 102 100 97 96 93 91 87 82 80 78 76 73 70 69 70 71 70 67 63 59 55 53 54 55 55 53 51 49 48 46 45 45 45 44 42 41 39 39 38 38 37 36 36 36 37 38 39 41 42 44 46 47 49 50 51 51 52
80 82 84 84 84 85 86 88 89 92 94 96 97 97 99 101 101 101 103 103 100 99 103 104 98 95 97 99 99 100 99 97 95 92 90 88 84 80 77 75 72 70 69 69 68 68 66 64 60 57 54 53 53 53 52 51 49 47 47 45 45 45 43 41 40 38 37 36 35 35 35 35 35 35 36 38 39 41 42 43 45 47 48 49 50 51
81 83 86 88 89 90 91 92 94 96 98 100 101 101 101 102 103 103 105 105 103 100 102 106 104 98 96 95 95 95 96 95 92 89 87 86 84 81 78 75 72 69 68 67 66 65 64 63 62 60 57 54 53 53 51 50 49 47 47 46 45 45 44 42 40 38 37 36 34 34 33 34 34 34 35 36 37 39 40 42 43 45 46 48 49 50
82 84 86 89 91 93 94 95 97 99 100 101 102 102 102 103 104 105 106 107 105 102 101 105 107 103 98 96 95 94 93 92 91 88 85 83 81 79 79 77 73 70 69 69 69 68 65 63 62 60 58 56 54 53 51 49 48 47 47 46 45 45 44 42 40 39 38 36 35 34 33 33 33 34 34 35 36 37 38 40 42 43 45 46 47 48
83 85 86 89 91 93 95 96 97 100 101 102 102 103 103 103 104 105 107 108 107 106 103 102 104 104 100 98 96 94 93 92 90 87 83 81 80 79 79 78 75 72 70 69 70 69 67 64 61 59 57 55 54 52 50 47 46 46 45 45 45 44 43 42 41 39 38 37 36 35 34 33 33 33 33 33 34 35 36 37 39 41 42 42 43 44
84 85 87 89 92 93 95 97 98 99 101 101 102 104 105 105 105 105 108 109 108 107 106 103 103 103 102 100 97 95 94 93 90 87 84 82 80 80 81 79 76 73 70 68 67 66 64 62 59 56 54 53 52 51 49 46 44 44 43 43 43 43 42 41 40 39 38 37 36 35 34 34 33 32 32 32 32 33 34 35 36 37 38 39 41 42
85 87 88 90 92 94 95 97 98 99 101 103 104 105 106 106 107 107 109 110 109 108 108 107 105 104 104 103 101 98 96 93 90 86 85 83 81 80 79 77 74 70 67 64 62 60 59 59 57 55 52 51 50 49 47 45 44 43 42 42 42 42 41 40 39 37 36 35 35 34 34 34 33 33 32 31 31 32 32 33 34 35 36 37 39 40
86 88 89 91 93 95 97 98 100 101 103 105 105 106 106 107 108 110 111 112 110 107 108 108 107 105 104 103 102 100 97 94 90 85 82 82 81 78 76 73 71 68 65 63 61 59 58 58 57 55 53 51 49 48 45 43 42 41 41 41 41 41 40 39 38 36 34 33 33 33 33 33 33 32 32 32 32 32 32 32 33 34 35 36 37 38
88 89 91 92 94 97 99 100 102 103 103 104 105 106 108 109 109 110 112 114 113 111 109 108 108 106 104 103 101 99 96 93 90 85 80 78 78 78 77 74 70 68 65 64 62 59 57 57 56 54 53 51 50 47 44 42 40 40 39 40 40 39 39 38 37 36 33 32 31 31 31 31 31 31 31 31 32 31 31 32 33 33 34 35 36 37
90 92 93 95 97 99 101 103 104 105 105 106 107 109 110 111 110 111 113 114 114 114 113 111 109 108 106 103 99 96 94 91 89 86 83 80 79 79 79 76 72 68 65 63 62 59 56 55 54 53 51 50 49 47 44 41 40 39 38 38 38 38 37 36 35 35 33 31 30 30 30 30 29 29 29 30 30 29 30 31 32 33 34 34 35 35
92 94 96 98 99 101 103 104 105 106 108 109 110 111 112 112 111 112 114 115 114 114 113 113 112 109 106 104 101 97 95 92 89 87 85 84 82 79 78 75 72 68 65 62 60 57 55 53 52 51 49 48 48 46 43 41 39 38 37 37 37 36 36 35 34 33 32 30 29 29 29 28 28 28 28 28 28 28 29 30 31 31 32 32 32 33
95 97 98 100 102 103 105 107 108 109 110 111 112 112 112 113 113 112 114 117 117 115 114 113 112 109 106 105 104 101 96 93 90 86 83 82 81 79 76 74 70 67 63 60 58 55 53 52 50 49 48 47 46 46 43 41 40 39 37 37 36 35 34 34 33 32 31 30 29 29 28 27 26 26 27 27 28 29 30 30 30 30 30 29 30 31
98 100 101 102 104 105 107 110 111 113 113 113 114 114 115 115 115 115 115 117 118 117 115 113 112 110 108 107 105 101 96 91 87 84 81 79 78 78 76 73 69 65 62 59 57 54 52 50 48 47 47 46 46 45 44 42 40 39 38 37 36 34 34 33 32 32 31 30 30 29 29 27 26 25 26 27 28 29 29 28 28 28 28 28 28 29
101 103 104 105 107 108 110 111 112 113 115 116 117 118 118 119 119 118 117 118 119 118 116 114 113 112 109 106 103 99 93 87 84 81 79 78 78 78 77 74 70 66 63 60 58 56 53 50 48 47 46 45 44 44 43 41 40 40 39 38 37 35 34 33 32 31 30 29 29 29 29 28 26 25 26 27 27 28 27 27 27 27 26 26 26 27
103 105 107 109 110 112 113 114 115 116 117 119 120 121 122 122 122 122 121 120 120 119 117 115 114 112 108 104 101 97 92 86 82 80 79 79 80 80 78 75 71 67 64 60 58 56 54 51 49 47 46 45 44 43 42 40 40 40 39 39 38 36 35 33 31 30 29 28 28 28 27 27 27 26 25 26 26 26 26 26 26 25 25 25 24 24
105 107 109 111 112 114 116 118 120 121 121 122 123 123 124 124 125 124 123 121 120 119 118 115 113 111 108 104 100 98 94 89 84 82 81 81 83 83 81 77 73 68 65 62 59 56 54 51 50 48 46 45 44 43 41 40 39 39 39 38 38 37 35 33 31 30 29 28 27 26 25 25 26 26 25 25 25 25 25 24 25 24 24 24 23 23
106 108 109 112 114 115 117 119 121 123 124 125 125 125 124 125 125 125 124 123 120 119 119 117 114 111 108 105 102 99 96 93 89 86 85 85 85 85 84 80 75 70 66 62 59 57 54 51 49 48 47 46 45 44 41 40 39 39 38 38 37 36 35 33 31 30 29 28 27 25 25 24 24 24 24 24 24 24 23 23 23 23 23 23 23 23
108 110 111 113 115 116 118 120 122 124 125 126 126 127 126 125 124 124 124 124 122 120 119 117 115 111 109 106 103 100 97 94 91 89 88 87 86 85 84 80 76 73 69 64 60 57 55 53 50 48 47 46 45 44 42 40 39 39 39 38 37 36 34 33 31 30 30 29 27 25 24 23 22 22 22 22 22 22 22 22 22 22 22 22 22 22
110 112 113 115 117 118 120 122 123 125 126 127 128 129 129 128 126 124 124 124 124 122 120 118 115 112 109 106 104 100 96 93 90 88 87 87 87 85 83 79 74 71 68 65 61 58 56 54 51 49 47 45 44 44 42 40 39 39 38 37 36 35 34 33 32 31 30 29 27 25 23 21 20 20 20 20 20 20 20 20 20 20 20 20 20 20
113 114 115 117 119 121 122 125 127 128 129 130 131 131 131 130 130 128 127 127 127 125 122 119 116 114 111 107 104 100 96 92 89 87 87 88 87 86 83 79 74 69 66 63 61 58 55 53 51 49 47 45 44 43 42 40 38 38 37 36 35 34 34 33 32 31 30 28 26 24 22 20 19 18 18 18 18 18 19 19 19 19 18 18 19 19
115 117 118 119 121 122 124 126 129 130 131 132 133 133 132 132 131 131 130 130 128 127 124 120 117 115 112 109 105 101 96 92 88 87 87 88 88 85 82 78 74 69 65 62 59 57 54 53 51 48 46 45 44 42 41 40 39 38 36 35 34 34 34 33 32 31 30 27 25 22 20 19 18 17 16 16 16 16 17 17 17 17 17 17 17 18
116 118 119 120 122 124 125 126 128 130 131 132 134 134 133 132 132 131 130 129 128 128 126 123 120 116 113 110 106 102 97 92 88 87 88 88 88 85 82 78 73 68 65 62 59 57 55 52 50 48 46 44 43 42 40 39 39 37 36 35 34 33 33 32 32 30 28 26 23 21 20 18 17 15 14 14 14 15 15 16 16 16 16 16 16 16
117 119 121 122 122 123 125 126 128 130 132 133 134 135 134 134 133 131 130 129 128 127 127 125 123 119 115 112 108 104 99 94 90 89 89 89 88 84 80 76 72 68 64 61 58 56 54 52 50 48 46 44 42 41 39 39 38 37 36 34 34 33 33 32 31 29 27 25 22 20 18 17 16 14 13 13 13 14 14 14 14 14 15 14 14 14
119 120 121 123 124 124 125 126 129 132 134 135 135 136 135 135 134 133 131 130 129 127 126 125 123 120 117 113 108 104 100 95 91 90 90 90 88 83 78 75 71 66 62 59 56 53 52 51 49 48 46 44 42 40 39 38 38 37 35 35 34 33 32 31 29 27 25 23 20 18 17 16 15 14 13 13 13 12 12 12 13 13 13 13 13 13
120 122 123 124 125 126 126 126 128 131 135 137 137 137 137 136 135 134 132 131 129 127 125 123 122 120 117 112 107 103 99 94 92 91 91 91 88 83 77 74 71 66 61 57 54 52 51 50 49 47 46 44 42 40 39 38 37 36 35 34 33 32 31 30 28 26 23 20 18 16 15 15 14 13 13 13 12 12 11 11 12 12 12 12 12 11
122 123 124 125 126 127 128 128 128 130 133 136 138 138 139 138 137 135 133 131 130 127 125 122 120 119 117 113 108 103 98 93 91 91 92 91 88 82 77 73 71 67 62 58 54 52 50 50 49 47 45 44 42 40 38 38 37 36 34 33 32 31 31 29 27 24 22 19 16 15 14 13 13 13 13 12 12 11 11 11 11 11 11 11 10 8
123 124 126 127 128 130 131 132 133 133 135 137 138 139 140 140 138 136 134 132 130 128 126 124 120 118 116 113 108 103 97 93 91 91 92 92 88 83 77 73 70 67 62 59 55 52 50 49 48 47 45 44 42 40 38 38 37 35 33 32 31 30 29 28 25 23 20 18 15 14 13 13 13 13 12 12 11 10 10 10 10 11 11 9 7 5
124 126 128 129 130 132 134 135 136 137 138 140 141 141 141 141 139 137 135 133 132 130 128 126 122 118 115 112 108 103 97 93 91 91 92 92 88 82 77 74 71 67 62 58 56 53 51 50 49 47 45 44 42 40 38 37 35 34 32 31 30 29 28 26 24 21 19 16 14 13 13 14 14 13 12 11 10 9 9 10 10 10 9 7 5 4
Wind_Direction
308 307 306 305 304 303 302 302 301 300 300 300 301 301 301 301 301 300 300 300 300 300 299 299 299 299 298 297 297 296 296 296 296 296 295 295 295 294 294 293 293 292 292 291 291 290 289 288 288 287 286 285 284 284 283 282 281 281 280 278 276 275 274 272 270 268 267 266 264 263 261 260 258 258 257 257 257 257 256 256 256 256 256 255 255 254
307 306 305 304 303 303 302 302 302 303 303 303 304 303 303 302 302 301 301 300 300 300 300 299 299 299 299 298 298 298 298 298 297 297 297 296 296 296 295 295 294 294 294 294 293 293 292 291 291 290 289 288 287 286 286 285 284 282 281 280 278 276 275 273 271 269 267 266 265 263 262 261 260 258 257 256 256 255 255 254 254 254 254 254 254 254
306 306 306 306 305 306 306 306 306 306 306 305 305 304 303 303 302 301 301 301 301 301 301 301 301 301 300 300 300 300 300 300 299 299 299 299 299 299 298 297 297 296 296 296 295 295 294 293 292 292 291 290 290 289 288 287 285 283 282 280 278 277 276 274 273 271 269 267 265 263 263 262 261 259 258 256 256 255 254 253 253 252 252 252 252 253
309 309 309 309 309 309 309 309 308 307 306 306 305 305 304 304 304 303 303 304 304 304 304 304 304 304 303 303 303 303 302 301 301 301 301 301 301 300 299 298 297 297 297 296 296 295 295 294 294 293 293 293 293 292 290 289 287 285 284 282 280 278 276 275 274 272 271 269 267 265 263 263 262 260 259 258 257 256 254 253 253 252 251 251 251 251
312 312 312 312 312 312 311 310 309 309 309 308 308 307 307 307 307 307 307 307 307 307 307 307 306 306 305 304 304 304 303 302 301 301 301 300 299 298 297 297 297 297 297 297 296 296 295 295 294 294 294 294 293 291 290 288 287 286 284 283 281 280 278 277 275 274 272 270 269 267 265 264 262 261 260 258 258 257 255 254 253 252 252 251 250 249
315 315 316 315 315 314 313 313 312 312 312 312 312 312 312 312 312 311 311 310 310 309 309 308 307 307 306 304 303 303 301 299 299 299 298 298 297 296 296 296 296 296 296 296 296 295 294 294 293 292 292 291 290 289 288 287 286 285 283 282 281 280 279 278 277 276 274 272 270 268 266 265 263 262 261 259 257 256 255 254 252 252 252 251 250 249
320 320 320 320 319 319 318 318 317 317 318 318 318 318 317 316 315 314 313 312 311 309 309 309 306 306 305 302 301 301 299 298 298 298 298 297 296 296 296 296 295 295 295 295 294 294 293 292 291 291 291 290 288 288 287 287 286 285 284 283 282 281 279 278 277 276 274 273 271 270 268 265 264 262 261 260 258 256 255 254 253 251 251 251 250 249
327 327 327 326 326 326 325 325 325 325 325 324 323 321 319 317 316 315 314 313 313 312 311 310 307 307 306 303 302 303 303 302 302 302 301 299 298 298 297 297 296 295 296 296 296 295 294 293 292 292 292 292 291 290 289 288 287 287 286 285 284 283 281 279 278 276 275 273 272 271 269 267 265 263 261 260 259 258 256 255 255 253 252 251 251 250
335 335 335 335 335 334 333 332 332 331 329 326 324 323 321 320 319 319 319 318 318 317 315 313 312 311 310 308 308 309 308 308 308 306 304 302 302 302 301 301 300 300 300 300 300 299 297 296 295 295 294 293 292 290 289 288 288 287 286 285 284 283 282 281 280 278 277 275 273 272 270 268 266 264 262 261 260 260 258 256 255 255 253 252 251 250
345 345 343 342 341 339 338 336 335 334 332 331 331 330 328 327 325 324 323 322 321 320 318 317 315 314 313 313 314 314 313 313 312 310 308 307 307 307 306 305 304 304 304 303 301 299 297 296 295 295 294 292 291 289 289 289 288 287 285 284 283 282 282 282 281 279 278 276 275 273 272 270 267 265 263 262 261 260 259 257 256 255 254 253 252 251
351 349 347 346 345 344 343 341 340 340 339 337 336 335 333 331 329 327 325 325 324 322 321 320 318 318 317 318 319 316 315 314 313 311 310 310 310 309 308 306 305 304 303 301 299 297 296 295 295 295 294 293 292 291 290 290 288 287 285 284 283 282 281 281 281 280 279 277 276 274 272 271 269 267 265 262 260 259 259 258 256 255 254 253 253 252
354 353 351 350 349 348 347 345 344 344 342 340 339 337 336 333 331 328 327 327 326 325 324 322 321 321 320 319 319 317 315 315 314 313 312 312 311 309 307 306 304 304 302 301 299 298 298 297 297 296 296 295 294 293 292 291 289 286 285 284 283 282 282 281 280 280 279 278 276 274 272 271 269 267 266 264 262 260 258 257 256 255 254 253 253 252
357 357 355 353 352 350 349 347 346 345 344 342 340 338 337 335 333 330 329 329 329 329 329 327 325 324 321 320 320 320 319 318 317 316 315 313 312 310 309 309 309 308 307 305 304 303 302 301 301 300 299 298 296 295 293 292 290 287 286 285 284 283 282 281 280 279 279 278 277 275 273 271 269 267 265 264 262 261 259 258 256 255 254 254 253 253
359 359 357 355 353 351 350 348 346 346 345 342 341 339 338 337 335 334 332 333 334 333 333 331 328 326 324 323 325 324 323 322 320 319 318 316 315 315 315 315 314 312 310 308 307 306 304 303 303 303 302 300 298 297 295 293 291 290 290 289 287 286 284 283 282 281 280 278 277 276 274 271 269 267 265 264 262 261 260 259 258 256 255 253 253 253
360 359 358 356 355 352 350 349 347 347 346 343 342 342 341 338 337 337 337 337 337 337 335 332 331 330 328 327 329 328 326 325 323 322 321 321 320 319 318 317 315 313 311 310 308 306 305 305 305 305 303 301 299 298 296 294 292 292 292 291 289 288 287 285 284 283 281 280 278 276 274 272 270 268 266 264 263 262 261 260 259 257 256 254 253 252
359 358 358 357 356 354 352 350 348 347 346 345 344 343 342 339 338 339 339 339 338 338 338 335 335 334 329 329 331 329 328 327 327 327 325 324 323 321 321 319 317 314 313 311 309 308 307 306 306 306 305 303 301 298 296 294 294 293 293 291 290 289 288 287 286 285 283 282 280 277 275 273 270 268 266 265 263 262 262 261 259 258 257 255 254 253
0 359 358 358 357 355 353 352 350 349 348 346 344 343 343 342 340 340 340 340 339 339 340 339 339 336 330 330 333 331 330 330 329 329 327 325 324 323 322 320 318 316 314 313 312 310 309 308 309 309 307 306 303 300 298 297 296 295 293 291 290 290 289 288 287 286 284 282 280 278 276 274 272 269 267 265 264 263 262 261 260 259 258 256 255 254
2 0 359 358 358 356 355 354 352 351 349 347 345 344 345 344 342 340 340 341 341 341 342 341 342 338 332 332 335 333 331 331 330 330 328 327 326 325 323 321 320 319 317 315 314 313 312 311 312 312 310 308 304 301 301 300 298 297 295 293 292 291 290 288 287 285 284 282 281 279 277 275 273 271 268 266 265 264 263 262 261 259 258 257 256 255
4 2 360 359 359 358 357 355 353 352 351 350 348 346 345 345 344 342 341 342 342 342 342 343 345 340 334 334 336 334 333 331 331 332 331 329 328 327 325 323 322 321 319 318 316 315 314 314 314 314 311 309 305 303 302 302 301 300 298 296 294 292 290 288 286 284 283 282 281 280 279 277 275 272 270 268 266 265 263 261 260 259 258 257 256 255
4 3 2 0 360 359 358 356 355 354 353 352 350 348 346 346 345 344 343 344 343 343 342 344 347 342 335 336 336 334 333 333 332 333 333 332 331 330 328 326 325 325 323 321 319 317 316 316 316 315 312 309 307 305 304 303 303 302 300 299 297 294 292 289 287 286 284 282 281 280 279 277 275 273 271 269 267 265 263 261 260 259 258 257 256 255
3 3 4 3 1 0 359 358 356 355 355 354 351 349 348 347 346 345 345 345 345 344 342 344 348 344 336 336 337 335 335 335 333 334 334 334 333 332 331 329 328 328 325 322 320 318 317 318 318 316 313 310 308 307 306 305 305 304 302 301 299 297 294 292 290 289 288 286 284 281 279 277 275 272 271 269 267 265 263 261 260 258 257 256 255 254
4 3 4 4 3 2 0 359 358 356 356 355 353 351 349 348 347 346 346 347 347 345 343 343 347 344 338 337 338 337 337 336 334 334 335 336 335 334 333 331 330 329 327 324 322 320 319 320 319 316 313 310 308 308 307 306 306 305 304 303 301 299 297 296 294 293 292 290 288 285 282 278 275 272 269 267 266 265 263 262 260 258 257 255 255 254
4 3 3 3 3 2 1 360 359 357 356 356 354 352 350 349 349 348 347 349 349 346 343 343 345 345 340 339 339 338 337 336 335 335 335 336 336 335 334 332 330 329 328 326 324 322 321 321 319 317 315 312 310 310 309 309 308 307 306 304 302 300 299 298 297 296 295 293 291 288 285 281 277 273 269 266 264 263 263 262 261 259 258 256 255 254
4 3 2 3 3 2 1 0 359 357 356 356 356 354 352 351 351 349 347 349 350 347 343 342 345 346 343 341 340 337 337 337 336 336 336 336 336 336 334 333 331 331 330 328 325 323 322 322 321 320 318 315 313 312 312 311 311 310 308 306 304 302 301 301 300 299 297 295 292 290 287 284 280 275 271 267 264 262 261 261 261 260 259 258 258 256
4 3 1 1 2 2 1 0 359 358 357 356 357 356 355 353 351 349 348 349 351 349 344 342 345 347 345 342 340 338 338 338 337 337 337 337 336 335 334 334 333 333 331 328 326 324 324 324 324 323 321 318 316 314 314 313 313 312 310 309 306 305 304 304 303 301 299 297 294 292 289 285 281 277 273 270 266 264 262 261 261 260 260 259 258 257
4 3 1 0 1 1 1 1 360 359 358 357 357 357 356 353 352 350 348 349 350 349 346 343 344 346 345 343 341 339 338 338 337 337 338 337 336 335 334 335 335 334 331 329 327 326 326 327 326 325 324 321 319 317 316 316 315 314 313 311 309 308 308 308 307 305 303 300 297 294 290 287 283 279 276 272 269 266 264 262 261 260 260 259 258 258
4 4 3 1 1 1 1 1 0 359 358 358 357 357 356 354 353 351 348 349 350 349 348 345 343 345 345 344 343 341 340 339 338 339 340 337 336 335 335 335 336 335 334 332 330 329 329 329 327 326 324 322 320 318 318 317 316 315 313 312 310 310 310 310 309 307 305 302 300 296 292 289 285 282 279 276 273 270 267 265 263 261 260 260 260 259
4 4 4 2 1 1 1 1 1 360 359 358 357 356 356 355 354 351 348 349 350 349 348 346 344 344 345 345 345 343 342 341 340 340 340 338 337 337 336 336 337 337 336 335 333 331 329 328 326 325 323 321 319 318 318 318 316 315 313 312 311 310 310 310 309 308 306 304 301 298 295 292 289 286 283 280 277 274 271 268 266 264 263 262 261 260
4 4 4 3 1 1 1 1 1 0 358 358 357 356 356 355 354 351 349 350 351 349 347 347 346 346 346 346 346 345 343 342 340 340 341 340 340 339 337 337 337 337 336 335 333 330 328 326 324 322 322 320 319 318 318 318 317 315 314 312 312 311 311 310 308 307 306 304 302 300 297 295 292 290 287 284 280 277 274 272 270 268 266 265 264 263
4 4 4 4 2 2 2 1 1 0 358 358 357 356 356 355 354 352 350 350 351 350 348 347 347 348 347 347 347 346 344 343 341 342 343 342 341 340 338 337 337 336 335 333 331 329 328 325 323 322 322 321 320 319 319 320 318 316 315 313 313 312 311 309 308 307 306 305 303 301 299 297 295 294 291 287 283 280 277 275 273 270 268 267 265 264
4 3 4 4 3 2 2 2 1 0 359 358 357 356 356 355 355 353 350 350 351 351 349 348 348 348 348 347 348 347 345 343 342 343 344 342 341 340 337 336 336 336 335 333 330 330 330 327 325 324 323 322 321 321 321 321 319 317 316 314 313 312 311 310 308 307 306 305 303 301 299 298 297 296 294 291 287 285 282 279 276 273 271 268 266 265
4 4 4 4 4 3 3 2 2 1 360 359 357 356 356 356 356 354 351 350 351 351 351 350 349 349 349 348 348 347 346 344 342 342 343 343 342 340 338 338 339 338 336 334 332 331 331 329 326 325 324 323 322 322 322 322 320 318 316 315 314 313 312 311 309 308 307 306 303 301 299 298 297 296 294 292 290 287 285 282 279 276 274 271 269 268
5 4 4 5 5 4 3 3 2 1 0 359 358 357 356 356 356 355 352 351 352 352 351 350 349 350 349 348 348 347 347 345 343 342 344 344 344 343 341 340 339 339 337 335 333 332 331 329 327 325 325 324 322 322 323 322 321 319 317 316 315 314 313 311 310 309 308 306 304 302 301 299 298 296 293 291 289 287 284 281 278 277 275 275 274 272
6 5 5 5 5 4 3 3 3 1 1 360 358 358 357 356 356 356 353 352 353 353 352 350 350 350 349 348 348 348 348 347 344 344 345 345 345 345 342 340 339 339 338 336 334 333 333 331 329 326 325 325 324 323 323 323 322 320 319 318 317 316 314 313 311 309 308 307 305 303 301 300 299 297 293 290 288 284 281 278 277 277 276 275 274 272
6 6 6 5 5 4 3 3 3 2 1 0 359 358 357 356 356 357 355 353 353 353 352 351 350 350 350 350 349 349 349 348 345 344 345 346 345 344 343 341 339 339 338 336 334 335 335 333 331 329 328 327 326 325 325 325 323 322 321 320 319 317 315 312 311 310 309 309 307 305 303 301 299 296 292 288 285 282 279 279 279 278 277 276 273 270
7 7 6 6 5 5 4 3 3 3 1 1 359 358 357 356 356 356 356 354 354 354 353 351 350 351 351 351 350 349 349 348 345 343 344 345 344 344 343 342 341 340 339 337 335 335 336 335 334 332 331 330 328 327 326 326 324 323 323 322 320 318 316 313 312 312 312 312 310 308 305 303 300 296 290 286 284 282 282 282 281 280 278 276 273 271
7 7 6 6 5 5 4 4 3 3 2 1 360 359 358 357 357 356 356 355 354 354 353 352 351 352 352 351 349 348 348 348 345 343 344 345 345 345 345 344 343 342 340 339 338 337 337 337 336 335 333 332 330 329 328 327 326 325 324 323 322 320 317 316 316 316 315 314 312 309 306 304 301 297 292 289 287 286 286 285 283 281 280 278 276 275
8 7 6 6 6 5 4 4 3 3 2 2 1 360 359 358 357 357 356 356 355 354 353 353 352 352 351 351 349 348 347 348 346 344 346 347 347 346 345 345 344 344 342 340 340 339 340 339 338 337 336 334 332 331 330 329 327 326 325 324 322 321 320 319 320 320 318 316 312 308 305 303 301 298 296 294 292 290 289 288 286 285 283 281 280 279
8 8 7 6 6 5 5 4 3 3 3 2 1 0 360 358 358 357 356 356 355 354 354 353 352 351 351 351 350 349 348 348 347 347 348 349 348 347 345 345 345 345 343 342 341 341 341 341 340 339 338 337 334 332 332 331 329 327 326 324 323 322 322 323 324 323 320 317 312 307 303 300 299 298 297 296 294 293 291 290 288 287 287 286 285 283
8 8 7 7 6 6 5 5 4 3 3 3 2 1 360 359 358 357 356 355 355 355 354 353 352 351 352 351 351 350 349 348 348 348 349 350 350 348 346 345 345 344 344 343 342 342 342 342 342 340 339 339 336 334 333 333 330 328 327 327 325 324 324 325 326 324 320 317 312 307 303 300 299 298 298 297 295 294 292 290 290 290 289 288 287 285
9 8 7 7 6 6 5 5 5 4 3 2 2 1 360 359 358 357 356 355 355 355 355 353 352 352 352 352 352 351 351 350 348 348 349 350 350 348 346 345 345 344 343 343 343 343 343 343 343 342 341 340 338 335 334 334 332 330 329 329 327 325 325 326 326 324 321 318 314 310 307 305 303 300 299 297 295 293 291 292 291 291 289 288 287 287
9 8 7 7 6 6 6 5 4 4 3 2 2 1 360 359 358 358 357 356 355 355 355 354 353 352 353 353 353 352 352 351 349 348 349 349 349 349 347 346 346 345 344 342 342 343 344 343 342 342 342 341 339 336 335 335 333 331 331 330 328 327 326 327 328 326 323 320 318 315 312 310 306 302 299 296 293 292 293 292 291 290 289 288 287 286
9 8 8 7 7 6 6 5 4 4 4 3 2 2 1 359 358 358 357 357 356 355 355 354 353 353 353 354 354 353 352 352 350 349 349 349 350 349 347 346 346 346 344 343 342 343 344 343 342 342 342 341 340 338 337 336 334 333 333 332 329 328 328 329 330 328 325 322 320 319 317 314 309 304 300 296 294 294 294 293 292 291 290 288 288 286
9 8 8 8 7 7 7 6 5 5 4 4 3 2 1 360 359 358 357 357 356 355 354 354 354 354 353 354 354 353 353 352 351 350 350 350 350 349 348 347 346 346 345 343 343 343 343 343 342 342 342 342 341 339 338 336 335 335 335 333 331 330 331 331 331 329 326 324 323 322 321 317 312 307 302 298 296 295 295 294 294 292 291 289 288 285
9 9 8 8 8 7 7 6 5 4 4 4 3 3 2 0 359 358 358 357 356 355 354 354 355 354 354 354 354 354 353 353 352 351 350 351 351 350 349 347 346 346 346 344 344 344 343 343 343 342 342 343 342 341 340 337 336 337 337 334 333 333 333 333 332 329 327 325 325 325 324 319 314 309 303 300 298 298 297 296 295 293 291 289 287 283
9 9 8 7 7 7 7 6 6 4 4 4 4 3 2 1 360 359 358 357 356 356 355 354 354 355 354 354 354 354 353 353 353 352 351 352 352 352 350 347 346 347 347 345 344 345 343 343 343 342 342 343 343 342 342 339 338 339 338 335 335 335 334 334 332 330 328 326 327 328 325 321 316 310 305 304 303 302 300 298 295 292 290 288 285 281
9 9 8 7 7 7 7 7 6 5 4 4 4 3 2 1 0 359 358 357 357 356 356 355 354 355 355 354 354 354 354 353 353 352 352 352 353 353 351 348 346 348 348 345 345 345 344 343 344 343 343 344 344 344 343 341 340 341 339 337 337 337 335 334 332 330 328 328 329 329 327 322 317 312 309 309 308 305 303 299 296 294 291 287 282 279
9 9 8 8 7 6 6 6 7 6 5 4 4 3 2 2 0 359 358 357 357 357 356 355 355 355 355 354 354 355 355 354 353 353 352 352 353 353 352 349 347 348 349 346 346 347 345 344 345 344 344 345 346 346 345 343 342 342 340 337 337 337 336 335 333 331 330 330 331 332 328 323 318 315 314 314 313 310 307 304 302 299 293 287 281 279
9 8 8 7 7 6 5 5 6 6 5 4 4 3 2 2 1 360 358 358 357 356 356 356 356 355 355 355 355 355 355 354 354 353 352 352 353 354 353 350 348 348 349 348 348 348 347 346 346 346 345 346 347 348 347 345 343 343 340 338 338 339 337 335 334 333 331 332 335 335 330 324 320 318 318 318 317 316 315 313 310 302 294 289 285 283
9 8 8 8 7 6 6 5 5 5 5 5 4 3 3 2 1 360 359 358 357 356 356 356 356 356 356 355 355 356 356 355 354 354 353 352 353 354 354 351 349 349 350 349 348 349 348 348 348 348 347 347 348 349 348 346 345 343 340 339 340 341 338 335 334 334 332 334 338 338 332 328 324 323 324 323 322 322 323 320 312 301 296 293 289 286
9 8 8 8 7 7 6 6 5 5 5 5 4 3 3 2 1 360 359 358 358 357 357 356 356 356 356 356 356 356 356 356 354 354 354 353 353 355 355 352 350 350 351 351 350 350 350 349 349 350 349 348 348 350 349 347 345 343 341 341 342 342 338 335 334 335 334 337 342 341 335 332 329 327 326 325 326 330 327 319 309 301 299 296 288 281